Weather History for Wichita Falls, TX

Change the Weather History Date:

Thursday, October 4, 2012

  Actual Average Record
Temperature  
Mean Temperature 70 °F 69 °F  
Max Temperature 77 °F 81 °F 97 °F (2000)
Min Temperature 62 °F 56 °F 42 °F (1975)
Degree Days  
Heating Degree Days 0 2  
Month to date heating degree days 0 7  
Since 1 July heating degree days 4 20  
Cooling Degree Days 5 5  
Month to date cooling degree days 13 23  
Year to date cooling degree days 2830 2302  
Growing Degree Days 20 (Base 50)    
Moisture  
Dew Point 57 °F    
Average Humidity 70    
Maximum Humidity 88    
Minimum Humidity 56    
Precipitation  
Precipitation 0.00 in 0.08 in 1.77 in (1930)
Month to date precipitation 0.00 0.33  
Year to date precipitation 18.50 22.87  
Sea Level Pressure  
Sea Level Pressure 30.05 in    
Wind  
Wind Speed 11 mph (East)    
Max Wind Speed 25 mph    
Max Gust Speed 31 mph    
Visibility 10 miles    
Events      
T = Trace of Precipitation, MM = Missing Value Source: NWS Daily Summary

Daily Weather History Graph

Daily Weather History Graph

Search for Another Location

Airport:

Trip Planner

Search our weather history database for the weather conditions in past years. The results will help you decide how hot, cold, wet, or windy it might be!

Date:

Astronomy

Oct. 04, 2012 Rise Set
Actual Time 7:31 AM CDT 7:13 PM CDT
Civil Twilight 7:06 AM CDT 7:38 PM CDT
Nautical Twilight 6:37 AM CDT 8:07 PM CDT
Astronomical Twilight 6:08 AM CDT 8:36 PM CDT
Moon 10:02 PM CDT (10/4) 11:37 AM CDT (10/4)
Length of Visible Light 12h 32m
Length of Day
11h 42m
Waning Gibbous, 82% of the Moon is Illuminated
Oct 4
Waning Gibbous
Oct 8
Last Quarter
Oct 15
New
Oct 21
First Quarter
Oct 29
Full

Hourly Weather History & Observations

Time (CDT) Temp. Dew Point Humidity Pressure Visibility Wind Dir Wind Speed Gust Speed Precip Events Conditions
12:52 AM 66.0 °F 54.0 °F 65% 29.94 in 10.0 mi SE 10.4 mph - N/A   Clear
1:52 AM 64.9 °F 54.0 °F 68% 29.95 in 10.0 mi ESE 8.1 mph - N/A   Clear
2:52 AM 66.0 °F 54.0 °F 65% 29.95 in 10.0 mi SSE 12.7 mph - N/A   Clear
3:52 AM 64.9 °F 55.0 °F 70% 29.94 in 10.0 mi SSE 13.8 mph - N/A   Clear
4:52 AM 64.9 °F 55.9 °F 73% 29.94 in 10.0 mi SSE 15.0 mph - N/A   Clear
5:52 AM 66.9 °F 57.9 °F 73% 29.95 in 10.0 mi SSE 16.1 mph 23.0 mph N/A   Clear
6:52 AM 66.0 °F 60.1 °F 81% 29.97 in 10.0 mi SSE 17.3 mph 23.0 mph N/A   Clear
7:52 AM 66.0 °F 62.1 °F 87% 30.03 in 10.0 mi SSW 4.6 mph - N/A   Clear
8:16 AM 66.2 °F 62.6 °F 88% 30.06 in 10.0 mi SE 3.5 mph - N/A   Mostly Cloudy
8:52 AM 68.0 °F 63.0 °F 84% 30.04 in 10.0 mi SE 11.5 mph - N/A   Overcast
9:52 AM 71.1 °F 64.9 °F 81% 30.06 in 10.0 mi SSE 6.9 mph - N/A   Overcast
10:52 AM 73.0 °F 64.9 °F 76% 30.07 in 10.0 mi SSE 6.9 mph - N/A   Overcast
11:18 AM 73.4 °F 64.4 °F 73% 30.10 in 10.0 mi South 10.4 mph - N/A   Mostly Cloudy
11:52 AM 75.0 °F 66.0 °F 73% 30.08 in 10.0 mi South 5.8 mph - N/A   Overcast
12:52 PM 75.0 °F 66.0 °F 73% 30.07 in 10.0 mi Calm Calm - N/A   Overcast
1:52 PM 75.9 °F 66.0 °F 71% 30.07 in 10.0 mi Calm Calm - N/A   Overcast
2:52 PM 64.9 °F 52.0 °F 63% 30.08 in 10.0 mi North 23.0 mph 28.8 mph N/A   Overcast
3:30 PM 66.2 °F 51.8 °F 60% 30.11 in 10.0 mi NNE 24.2 mph 29.9 mph N/A   Mostly Cloudy
3:52 PM 66.0 °F 52.0 °F 60% 30.09 in 10.0 mi NNE 21.9 mph 29.9 mph N/A   Mostly Cloudy
4:52 PM 64.0 °F 52.0 °F 65% 30.10 in 10.0 mi North 18.4 mph - N/A   Mostly Cloudy
5:52 PM 63.0 °F 52.0 °F 67% 30.10 in 10.0 mi North 16.1 mph - N/A   Overcast
6:31 PM 62.6 °F 51.8 °F 68% 30.13 in 10.0 mi North 12.7 mph - N/A   Overcast
6:52 PM 63.0 °F 52.0 °F 67% 30.11 in 10.0 mi North 13.8 mph - N/A   Overcast
7:52 PM 63.0 °F 51.1 °F 65% 30.11 in 10.0 mi North 12.7 mph - N/A   Overcast
8:52 PM 63.0 °F 51.1 °F 65% 30.11 in 10.0 mi North 10.4 mph - N/A   Overcast
9:52 PM 63.0 °F 50.0 °F 63% 30.11 in 10.0 mi North 10.4 mph - N/A   Overcast
10:52 PM 62.1 °F 51.1 °F 67% 30.11 in 10.0 mi North 8.1 mph - N/A   Overcast
11:52 PM 62.1 °F 51.1 °F 67% 30.10 in 10.0 mi NNW 5.8 mph - N/A   Overcast